Weather History for Port Angeles, WA

Change the Weather History Date:

Saturday, January 25, 2014

  Actual Average Record
Temperature  
Mean Temperature 36 °F -  
Max Temperature 44 °F 45 °F 55 °F (1951)
Min Temperature 28 °F 34 °F 7 °F (1950)
Degree Days  
Heating Degree Days 29    
Moisture  
Dew Point 34 °F    
Average Humidity 93    
Maximum Humidity 97    
Minimum Humidity 79    
Precipitation  
Precipitation 0.00 in - - ()
Sea Level Pressure  
Sea Level Pressure 30.33 in    
Wind  
Wind Speed 1 mph (NE)    
Max Wind Speed 7 mph    
Max Gust Speed -    
Visibility 4 miles    
Events Fog    
Averages and records for this station are not official NWS values.
T = Trace of Precipitation, MM = Missing Value Source: NWS Daily Summary

Daily Weather History Graph

Daily Weather History Graph

Search for Another Location

Airport:

Trip Planner

Search our weather history database for the weather conditions in past years. The results will help you decide how hot, cold, wet, or windy it might be!

Date:

Astronomy

Jan. 25, 2014 Rise Set
Actual Time 7:50 AM PST 5:03 PM PST
Civil Twilight 7:16 AM PST 5:37 PM PST
Nautical Twilight 6:38 AM PST 6:15 PM PST
Astronomical Twilight 6:01 AM PST 6:51 PM PST
Moon 2:26 AM PST (1/25) 12:08 PM PST (1/25)
Length of Visible Light 10h 20m
Length of Day
9h 12m
Waning Crescent, 33% of the Moon is Illuminated
Jan 25
Waning Crescent
Jan 30
New
Feb 6
First Quarter
Feb 14
Full
Feb 22
Last Quarter

Hourly Weather History & Observations

Time (PST) Temp. Windchill Dew Point Humidity Pressure Visibility Wind Dir Wind Speed Gust Speed Precip Events Conditions
12:53 AM 32.0 °F - 30.0 °F 92% 30.32 in 10.0 mi Calm Calm - N/A   Clear
1:53 AM 32.0 °F - 30.0 °F 92% 30.32 in 10.0 mi Calm Calm - N/A   Clear
2:53 AM 33.1 °F 26.9 °F 30.9 °F 92% 30.32 in 10.0 mi SW 6.9 mph - N/A   Clear
3:53 AM 33.1 °F - 30.9 °F 92% 30.33 in 10.0 mi Calm Calm - N/A   Clear
4:53 AM 30.9 °F - 30.0 °F 96% 30.33 in 10.0 mi Calm Calm - N/A   Clear
5:53 AM 28.0 °F - 26.1 °F 92% 30.33 in 10.0 mi Calm Calm - N/A   Clear
6:53 AM 28.9 °F - 27.0 °F 92% 30.33 in 10.0 mi North - - N/A   Clear
7:53 AM 28.0 °F - 26.1 °F 92% 30.35 in 10.0 mi North - - N/A   Clear
8:53 AM 32.0 °F - 30.9 °F 96% 30.36 in 10.0 mi Calm Calm - N/A   Clear
9:53 AM 43.0 °F 41.3 °F 37.9 °F 82% 30.37 in 10.0 mi East 3.5 mph - N/A   Clear
10:53 AM 44.1 °F 42.5 °F 37.9 °F 79% 30.39 in 10.0 mi Variable 3.5 mph - N/A   Clear
11:35 AM 43.0 °F 39.5 °F 39.9 °F 89% 30.37 in 7.0 mi North 5.8 mph - N/A   Partly Cloudy
11:49 AM 42.8 °F 41.1 °F 39.2 °F 87% 30.37 in 3.0 mi North 3.5 mph - N/A   Mostly Cloudy
11:53 AM 42.1 °F 40.2 °F 39.9 °F 92% 30.38 in 1.2 mi North 3.5 mph - N/A   Mostly Cloudy
12:00 PM 41.0 °F 39.0 °F 39.0 °F 93% 30.37 in 0.5 mi Variable 3.5 mph - N/A Fog Fog
12:21 PM 42.1 °F 40.2 °F 39.9 °F 92% 30.37 in 1.0 mi NNE 3.5 mph - N/A   Overcast
12:29 PM 41.0 °F - 39.0 °F 93% 30.36 in 0.5 mi Calm Calm - N/A Fog Fog
12:38 PM 41.0 °F - 39.9 °F 96% 30.36 in 0.2 mi Calm Calm - N/A Fog Fog
12:49 PM 41.0 °F - 39.2 °F 93% 30.36 in 0.5 mi Calm Calm - N/A Fog Fog
12:53 PM 41.0 °F - 39.0 °F 93% 30.37 in 0.2 mi Calm Calm - N/A Fog Fog
1:06 PM 42.1 °F 40.2 °F 39.9 °F 92% 30.36 in 0.5 mi NE 3.5 mph - N/A Fog Fog
1:22 PM 41.0 °F - 39.0 °F 93% 30.35 in 0.2 mi Calm Calm - N/A Fog Fog
1:53 PM 41.0 °F - 39.0 °F 93% 30.36 in 0.2 mi Calm Calm - N/A Fog Fog
2:21 PM 42.1 °F - 39.9 °F 92% 30.34 in 1.0 mi Calm Calm - N/A   Mist
2:31 PM 43.0 °F 41.3 °F 39.9 °F 89% 30.34 in 10.0 mi NE 3.5 mph - N/A   Scattered Clouds
2:46 PM 42.1 °F - 39.0 °F 89% 30.34 in 1.8 mi Calm Calm - N/A   Partly Cloudy
2:53 PM 42.1 °F 39.2 °F 39.0 °F 89% 30.35 in 0.8 mi NE 4.6 mph - N/A   Mist
2:57 PM 41.0 °F 39.0 °F 39.0 °F 93% 30.34 in 0.2 mi NE 3.5 mph - N/A Fog Fog
3:53 PM 41.0 °F - 39.0 °F 93% 30.34 in 0.5 mi Calm Calm - N/A Fog Fog
4:04 PM 39.9 °F - 39.0 °F 97% 30.33 in 0.2 mi Calm Calm - N/A Fog Fog
4:53 PM 37.9 °F - 37.0 °F 97% 30.32 in 0.2 mi Calm Calm - N/A Fog Fog
5:53 PM 35.1 °F - 34.0 °F 96% 30.32 in 0.2 mi Calm Calm - N/A Fog Fog
6:40 PM 34.0 °F - 32.0 °F 92% 30.30 in 0.8 mi Calm Calm - N/A   Mist
6:53 PM 32.0 °F - 30.9 °F 96% 30.31 in 1.0 mi Calm Calm - N/A   Mist
6:58 PM 33.1 °F 30.0 °F 30.9 °F 92% 30.29 in 2.0 mi SSW 3.5 mph - N/A   Partly Cloudy
7:06 PM 33.1 °F - 30.9 °F 92% 30.29 in 4.0 mi Calm Calm - N/A   Clear
7:53 PM 32.0 °F - 30.9 °F 96% 30.30 in 3.0 mi Calm Calm - N/A   Clear
7:57 PM 32.0 °F - 30.9 °F 96% 30.29 in 2.0 mi Calm Calm - N/A   Partly Cloudy
8:00 PM 33.1 °F - 32.0 °F 96% 30.29 in 1.0 mi Calm Calm - N/A   Mist
8:07 PM 33.1 °F - 32.0 °F 96% 30.29 in 0.2 mi Calm Calm - N/A Fog Fog
8:53 PM 32.0 °F - 30.9 °F 96% 30.30 in 0.2 mi Calm Calm - N/A Fog Fog
9:18 PM 30.9 °F 27.5 °F 28.9 °F 92% 30.29 in 0.5 mi East 3.5 mph - N/A Fog Light Freezing Fog
9:28 PM 30.9 °F - 28.9 °F 92% 30.29 in 0.2 mi Calm Calm - N/A Fog Light Freezing Fog
9:53 PM 32.0 °F 27.5 °F 30.9 °F 96% 30.30 in 0.2 mi SSE 4.6 mph - N/A Fog Fog
10:53 PM 33.1 °F 28.7 °F 30.9 °F 92% 30.30 in 0.8 mi South 4.6 mph - N/A   Mist
10:58 PM 30.9 °F 27.5 °F 30.0 °F 96% 30.29 in 2.0 mi SSW 3.5 mph - N/A   Scattered Clouds
11:09 PM 30.9 °F - 30.0 °F 96% 30.29 in 4.0 mi Calm Calm - N/A   Partly Cloudy
11:53 PM 30.0 °F - 28.9 °F 96% 30.29 in 5.0 mi Calm Calm - N/A   Clear